Regional Weather Roundup
Issued by NWS

Home | Current Version | Previous Version | Graphics & Text | Print | Product List | Glossary On
Versions: 1 2 3 4 5 6 7 8 9 10 11 12 13 14 15 16 17 18 19 20 21 22 23 24 25 26 27 28 29 30 31 32 33 34 35 36 37 38 39 40 41 42 43 44 45 46 47 48 49 50
737
ASUS43 KFSD 271702
RWRSD

WEATHER ROUNDUP FOR SOUTH DAKOTA
NATIONAL WEATHER SERVICE SIOUX FALLS SD
1100 AM CST MON FEB 27 2017

NOTE: "FAIR" INDICATES FEW OR NO CLOUDS BELOW 12,000 FEET WITH NO
SIGNIFICANT WEATHER AND/OR OBSTRUCTIONS TO VISIBILITY.


SDZ001>005-009-010-012>017-271800-
NORTHWEST AND NORTH CENTRAL SOUTH DAKOTA

CITY           SKY/WX    TMP DP  RH WIND       PRES   REMARKS
BUFFALO          N/A     27  22  81 SE6       29.57F WCI  20
FAITH            N/A     29  22  75 CALM      29.66F
MOBRIDGE       SUNNY     32  21  64 SE10      29.71F WCI  24
$$

SDZ012>016-024>037-041>051-057-063-072>074-271800-
SOUTHWEST AND SOUTH CENTRAL SOUTH DAKOTA

CITY           SKY/WX    TMP DP  RH WIND       PRES   REMARKS
RAPID CTY ARPT CLOUDY    30  17  58 S5        29.63F WCI  25
PIERRE         MOSUNNY   36  15  42 S12       29.72S
CUSTER         SNOW      24  20  84 W8        29.58R VSB 1/4 WCI  15
ELLSWORTH AFB  CLOUDY    30  15  53 CALM      29.62F
PHILIP         SUNNY     41  16  36 SW14      29.67F
PINE RIDGE     CLOUDY    33  19  56 W3        29.67S
SPEARFISH      FAIR      34   9  35 NE7       29.60S WCI  28
WINNER         FAIR      39  22  50 SW25      29.74S
$$

SDZ004>011-016>023-039-040-271800-
NORTHEAST SOUTH DAKOTA

CITY           SKY/WX    TMP DP  RH WIND       PRES   REMARKS
ABERDEEN       CLOUDY    29  21  72 SE8       29.81F WCI  21
WATERTOWN      CLOUDY    32  21  64 S12       29.81F WCI  23
BROOKINGS      CLOUDY    35  22  58 SE14      29.85F WCI  26
SISSETON         N/A     27  23  85 SE9       29.85F WCI  18
$$

SDZ017-020-022-023-036>040-048>070-271800-
SOUTHEAST SOUTH DAKOTA

CITY           SKY/WX    TMP DP  RH WIND       PRES   REMARKS
SIOUX FALLS    CLOUDY    35  23  61 S14       29.89F WCI  26
HURON          CLOUDY    32  21  64 SE14      29.81F WCI  22
CHAMBERLAIN    CLOUDY    39  19  44 S14       29.78F
MITCHELL       PTSUNNY   37  18  46 S13       29.85F
YANKTON        SUNNY     30  19  64 E7        29.89F WCI  23
$$

ABBREVIATIONS USED IN REMARKS
   TC - TEMPERATURE IN CELSIUS
  WCI - WIND CHILL INDEX
   HX - HEAT INDEX
  VSB - VISIBILITY





USA.gov is the U.S. government's official web portal to all federal, state and local government web resources and services.